Lapse_Rate
2.6 2.5 2.3 2.3 2.6 3.4 4.0 4.3 4.9 5.4 5.4 5.7 6.9 7.3 5.4 5.2 5.1 6.1 8.0 7.5 8.1 7.5 6.8 9.4 9.1 8.9 8.7 7.9 8.1 7.7 6.5 6.5 6.5 6.5 6.5 6.6 6.5 7.2 7.4 6.8 7.1 7.5 7.2 7.4 7.8
2.1 1.9 1.9 2.1 2.9 3.1 3.6 4.1 5.1 7.3 7.0 7.7 7.7 6.4 5.9 5.7 6.3 7.8 7.8 8.0 7.5 7.7 8.3 8.3 8.0 8.3 7.3 7.4 7.3 6.6 6.5 6.5 6.5 6.5 6.5 6.6 6.5 6.6 6.6 6.5 6.6 6.8 7.6 7.6 7.9
1.8 1.6 1.7 2.0 2.8 3.1 3.5 4.1 6.8 7.8 7.9 8.0 6.7 5.3 5.7 5.8 7.5 7.1 7.4 7.5 7.6 7.8 9.3 9.0 8.5 7.8 7.0 7.2 6.9 6.6 6.5 6.5 6.6 6.8 6.8 6.5 6.5 7.1 6.5 6.5 6.6 6.6 7.1 7.6 7.8
1.5 1.4 1.5 2.0 2.8 3.3 3.8 5.4 7.6 7.3 8.0 7.2 5.7 5.4 5.4 7.4 6.5 6.8 7.1 7.6 7.8 9.4 9.2 8.6 7.9 7.1 6.5 6.5 7.1 6.5 6.6 6.7 6.7 7.0 6.8 6.5 6.9 6.5 6.6 6.6 7.3 7.4 7.6 7.4 6.9
1.4 1.2 1.4 2.1 2.4 3.3 4.5 5.3 6.7 6.3 6.0 5.8 5.7 5.4 6.2 7.7 7.7 7.2 7.3 7.3 9.0 8.6 8.5 8.1 7.4 7.1 6.5 6.5 6.7 6.5 6.5 6.8 7.0 7.0 6.8 7.0 6.4 6.4 6.3 6.9 7.4 7.5 7.4 6.9 7.5
1.3 1.0 1.1 1.7 2.5 3.3 3.9 4.5 5.1 5.3 5.2 5.1 5.6 5.5 6.3 6.6 9.2 9.7 8.5 8.9 9.4 9.0 8.5 8.4 7.7 7.8 6.9 6.6 6.5 6.6 6.6 6.7 6.9 6.8 6.8 6.5 6.3 6.2 6.6 6.9 7.0 7.1 6.5 7.0 7.4
1.2 1.0 1.0 1.9 2.5 3.0 3.5 3.8 4.4 4.7 4.9 5.3 6.3 7.4 8.1 7.5 9.4 9.6 9.2 9.3 9.4 9.1 8.2 8.7 8.6 7.6 7.3 6.5 7.2 6.9 6.5 6.5 6.5 6.4 6.5 6.2 6.5 6.5 6.5 6.8 6.7 6.5 6.3 6.3 7.0
1.3 1.1 1.0 1.8 2.5 2.8 3.4 3.8 4.0 4.2 5.2 5.7 5.7 8.3 7.4 8.5 9.2 9.6 9.7 9.2 9.6 9.5 9.0 9.1 9.0 7.9 7.3 7.4 6.8 6.5 6.5 6.5 6.5 6.5 6.3 6.2 6.5 6.5 6.4 6.3 6.1 6.2 6.3 6.0 6.4
1.3 1.2 1.0 1.2 2.0 2.5 3.1 4.1 4.2 4.7 5.3 6.1 7.2 8.2 7.1 7.1 8.6 9.3 9.4 8.6 8.9 9.1 9.1 9.2 8.5 7.2 7.0 6.5 6.5 6.5 6.5 6.5 6.5 6.5 6.5 6.5 6.5 6.5 6.4 6.3 5.6 5.6 6.2 6.6 6.5
1.5 1.4 1.2 1.1 1.8 2.7 3.2 4.3 5.3 4.8 5.8 8.5 8.9 7.4 7.8 7.6 8.6 8.3 9.5 8.8 8.3 8.2 7.8 7.6 7.0 6.5 6.5 6.5 6.5 6.5 6.5 6.5 6.5 6.5 6.5 6.5 6.5 6.5 6.1 6.0 5.4 5.2 6.2 5.6 6.4
1.9 1.4 1.3 1.5 2.2 3.5 4.3 6.9 6.8 7.6 8.4 7.4 7.5 7.4 7.9 8.6 8.0 8.6 9.1 8.5 8.2 7.5 6.5 6.7 6.5 6.5 6.5 6.5 6.5 6.5 6.5 6.5 6.5 6.5 6.5 6.5 6.5 6.5 6.2 6.0 5.7 5.8 6.2 6.5 6.4
2.1 1.7 1.3 2.1 2.6 3.8 6.0 5.7 4.8 5.1 6.8 8.2 8.1 8.1 8.5 8.1 7.3 8.0 8.5 7.3 6.9 6.5 6.5 6.5 6.5 6.5 6.5 6.5 6.5 6.5 6.5 6.5 6.5 6.5 6.5 6.5 6.5 6.5 6.5 6.4 6.0 6.0 5.7 5.9 6.4
2.4 1.7 1.6 2.4 3.9 6.0 5.1 5.2 6.9 8.3 6.8 7.3 8.0 7.7 7.9 8.0 7.2 7.3 8.1 7.4 6.5 6.5 6.5 6.5 6.5 6.5 6.5 6.5 6.5 6.5 6.5 6.5 6.5 6.5 6.5 6.5 6.5 6.5 6.5 6.2 6.1 6.1 6.3 6.3 6.4
2.5 1.8 1.8 2.3 4.7 7.1 6.3 6.7 6.9 7.3 6.5 6.5 6.8 7.5 7.8 8.0 6.7 8.3 8.5 7.5 6.6 6.5 6.5 6.5 6.5 6.5 6.5 6.5 6.5 6.5 6.5 6.5 6.5 6.5 6.5 6.5 6.5 6.5 6.5 6.5 6.5 5.6 5.4 5.8 5.9
2.6 1.9 1.9 2.2 6.0 7.1 6.0 6.1 6.7 6.7 6.5 6.5 6.7 8.1 8.1 7.0 7.1 7.2 8.5 7.5 6.5 6.5 6.5 6.5 6.5 6.5 6.5 6.5 6.5 6.5 6.5 6.5 6.5 6.5 6.5 6.5 6.5 6.5 6.5 6.5 6.5 6.5 6.0 5.7 5.9
2.9 1.9 1.8 5.4 7.2 5.8 5.9 6.1 6.2 6.5 6.5 6.5 6.8 6.5 6.5 6.8 6.8 7.3 7.3 7.9 7.4 6.5 6.5 6.5 6.5 6.5 6.5 6.5 6.5 6.5 6.5 6.5 6.5 6.5 6.5 6.5 6.5 6.5 6.5 6.5 6.5 6.4 5.6 5.6 5.7
2.8 2.1 3.1 4.9 6.0 5.6 5.7 6.8 6.5 6.5 6.5 6.5 6.5 6.5 6.5 6.5 6.5 6.5 6.5 6.5 6.5 6.5 6.5 6.5 6.5 6.5 6.6 6.5 6.5 6.5 6.5 6.5 6.5 6.5 6.5 6.5 6.5 6.5 6.5 6.5 6.5 6.5 5.8 5.3 5.6
3.3 2.4 3.3 5.1 5.0 5.2 6.5 6.6 6.5 6.5 6.5 6.5 6.5 6.5 6.5 6.5 6.5 6.5 6.5 6.5 6.5 6.5 6.5 6.5 6.5 6.5 6.5 6.5 6.5 6.5 6.5 6.5 6.5 6.5 6.5 6.5 6.5 6.5 6.5 6.3 6.0 6.2 5.7 5.9 5.9
3.8 5.2 7.0 5.9 4.8 5.2 6.7 6.5 6.5 6.5 6.5 6.5 6.5 6.5 6.5 6.5 6.5 6.5 6.5 6.5 6.5 6.5 6.5 6.5 6.5 6.5 6.5 6.5 6.5 6.5 6.5 6.5 6.5 6.5 6.5 6.5 6.5 6.5 6.5 6.5 6.4 5.8 5.5 5.3 5.8
5.8 7.1 7.5 5.5 5.0 5.4 6.5 6.5 6.5 6.6 6.5 6.5 6.5 6.5 6.5 6.5 6.5 6.5 6.5 6.5 6.5 6.5 6.3 6.5 6.5 6.5 6.5 6.6 6.4 6.5 6.5 6.5 6.5 6.5 6.5 6.5 6.5 6.5 6.5 6.5 6.5 6.5 5.8 5.5 5.7
5.5 6.9 5.1 5.9 5.3 6.5 6.5 6.5 6.5 7.0 6.9 6.5 6.5 6.5 6.5 6.5 6.5 6.5 6.5 6.5 6.5 6.5 6.4 6.5 6.5 6.5 6.5 6.5 6.5 6.5 6.5 6.5 6.5 6.5 6.5 6.5 6.5 6.5 6.5 6.5 6.5 6.5 5.5 5.6 5.7
7.1 6.5 5.6 6.0 6.5 6.4 6.5 6.5 4.8 6.6 7.1 6.5 6.5 6.5 6.5 6.5 6.5 6.5 6.5 6.5 6.7 6.6 6.5 6.5 6.5 6.5 6.5 6.5 6.5 6.5 6.5 6.5 6.5 6.5 6.5 6.5 6.5 6.5 6.5 6.5 6.3 5.8 5.6 6.0 6.2
6.8 6.5 6.4 5.7 6.5 6.5 6.5 6.5 6.7 6.5 6.5 6.5 6.5 6.5 6.5 6.5 6.5 6.5 6.5 6.7 6.9 6.5 6.5 6.5 6.5 6.5 6.5 6.5 6.5 6.5 6.5 6.5 6.5 6.5 6.5 6.5 6.5 6.5 6.5 6.5 6.5 6.5 5.5 5.8 6.4
4.4 6.5 6.2 5.2 7.0 6.5 6.5 6.5 6.5 6.8 6.6 6.7 6.5 6.6 6.5 6.5 6.5 6.5 6.5 6.5 6.8 6.5 7.0 6.5 6.5 6.5 6.5 6.5 6.5 6.5 6.5 6.5 6.5 6.5 6.5 6.5 6.5 6.5 6.5 6.5 6.4 6.5 5.8 5.6 5.7
4.4 6.2 5.9 6.5 6.5 6.5 6.5 6.5 6.5 6.5 6.7 6.8 6.5 6.5 6.5 6.5 6.5 6.5 6.5 6.5 6.5 6.7 6.4 6.5 6.5 6.5 6.5 6.5 6.5 6.5 6.5 6.5 6.5 6.5 6.5 6.5 6.5 6.5 6.5 6.5 6.4 5.9 6.0 6.1 6.0
3.3 5.5 5.2 6.4 6.3 6.5 6.5 6.5 6.5 6.5 6.5 6.5 6.5 6.5 6.5 6.5 6.5 6.5 6.5 6.5 6.5 6.5 6.5 6.5 6.5 6.5 6.5 6.5 6.5 6.5 6.5 6.5 6.5 6.5 6.5 6.5 6.5 6.5 6.4 6.3 6.1 5.8 6.0 6.2 6.2
3.8 4.1 5.4 6.4 6.5 6.5 6.5 6.5 6.5 6.5 6.6 6.8 6.6 6.5 6.5 6.5 6.7 6.6 6.7 6.3 6.4 6.5 6.5 6.5 6.5 6.5 6.5 6.5 6.5 6.5 6.5 6.5 6.5 6.5 6.5 6.5 6.5 6.5 6.5 6.5 6.2 6.2 6.4 6.4 6.2
Wind_Speed
21 22 22 22 22 21 20 19 16 14 14 13 13 11 10 11 11 7 3 4 4 3 3 3 2 5 5 3 1 5 4 6 8 10 11 16 18 17 18 14 16 17 23 19 22
22 23 23 23 23 22 20 18 18 13 13 13 12 13 11 12 9 7 11 2 4 0 6 5 5 7 4 2 1 4 5 8 10 13 15 18 18 19 18 18 18 21 22 23 24
23 23 24 25 24 22 20 17 16 12 12 12 12 13 14 11 7 5 14 10 2 5 2 3 3 4 3 4 4 4 9 11 14 16 17 17 17 17 17 20 19 22 21 23 27
23 23 24 24 24 22 20 17 15 13 12 11 11 11 14 6 1 3 8 8 6 6 1 2 1 2 1 6 3 5 10 12 15 15 13 15 17 19 18 22 19 21 23 21 22
23 23 24 23 22 22 21 18 15 14 12 11 10 8 6 4 7 8 2 2 2 2 2 2 5 5 4 3 6 12 13 10 12 15 13 16 17 16 15 15 19 20 17 13 20
23 24 24 24 22 22 20 17 15 12 12 13 9 7 4 5 4 3 3 5 2 4 1 3 5 7 6 7 6 5 10 14 12 17 17 14 8 10 17 17 16 18 15 14 17
23 24 25 24 22 21 20 16 11 9 10 11 8 6 10 6 2 3 1 4 3 5 5 3 6 3 4 6 5 8 9 15 12 6 7 9 11 10 13 15 18 18 14 12 14
22 24 25 25 23 20 21 14 7 5 7 9 7 5 4 2 6 2 1 4 2 2 3 2 2 5 1 5 5 6 11 4 9 8 8 8 11 14 13 16 17 17 16 12 11
22 23 25 25 24 22 19 10 7 5 4 5 4 3 5 3 2 4 4 3 2 1 2 1 3 4 4 6 6 7 4 11 9 12 11 6 14 12 16 15 10 10 14 14 11
20 22 25 25 21 23 18 8 5 5 5 3 3 2 2 5 3 2 2 3 4 1 6 5 3 5 5 2 3 8 8 9 11 12 9 11 11 16 15 7 9 10 14 13 15
19 21 24 24 15 26 12 3 2 3 6 5 4 4 4 4 3 3 1 3 4 5 6 6 3 7 5 1 6 7 10 11 15 11 13 10 14 17 11 6 9 11 13 13 9
17 20 22 22 12 23 8 5 4 2 3 3 2 4 2 1 3 5 2 4 4 8 1 5 7 7 3 5 7 9 13 15 11 9 14 14 18 19 6 6 6 5 7 8 10
16 18 21 19 11 4 12 8 4 4 3 5 1 2 3 3 3 6 4 1 7 8 8 7 9 2 4 8 10 11 12 13 12 12 12 17 11 12 15 7 7 8 7 7 8
15 14 19 21 5 2 4 5 6 3 2 6 4 2 4 2 3 1 2 3 3 5 6 8 4 2 7 11 11 12 10 14 14 12 7 9 13 10 13 9 8 7 6 6 8
12 13 17 12 6 3 5 7 4 2 2 3 4 2 2 4 5 6 2 3 7 9 4 5 3 5 10 10 6 7 9 12 15 15 14 11 7 7 13 6 6 7 5 6 8
9 10 16 1 2 3 6 4 2 0 2 2 2 1 5 9 4 2 4 3 6 5 9 15 12 5 5 8 8 10 11 14 14 11 8 8 10 2 6 7 3 5 6 7 7
4 7 6 4 2 7 6 3 2 4 3 2 1 2 7 8 5 4 7 7 5 4 3 9 9 8 2 5 8 5 7 4 5 3 4 10 10 6 9 5 2 4 5 8 8
4 5 1 2 4 6 3 1 4 4 6 2 3 8 7 5 1 3 5 8 6 2 3 3 3 4 6 2 4 8 4 3 5 3 10 10 6 7 13 6 6 5 8 10 11
5 3 2 2 5 3 1 4 1 4 3 7 11 4 3 3 2 4 6 9 3 3 2 2 4 2 3 6 1 3 4 2 7 9 9 6 10 9 10 9 10 10 10 9 9
3 2 2 1 5 3 3 1 2 3 2 2 3 1 3 5 2 1 4 5 3 1 6 3 5 8 2 2 7 8 5 2 2 4 4 5 11 12 9 14 8 8 7 9 8
2 2 2 3 3 1 3 2 2 3 1 2 4 5 5 5 1 2 5 4 2 4 5 2 4 3 6 6 8 3 3 4 1 3 3 6 4 10 19 11 7 8 8 8 7
2 2 2 3 1 1 1 2 1 2 2 3 3 5 5 8 4 4 4 3 5 3 3 4 2 4 10 17 6 3 3 3 2 7 4 4 16 14 13 10 5 10 6 6 6
1 2 2 3 2 2 0 1 2 4 4 4 4 6 4 3 3 6 5 1 2 0 2 1 3 4 6 2 5 0 4 5 3 1 16 10 10 12 14 14 11 12 6 5 7
2 1 1 2 2 1 2 2 3 5 3 5 6 5 6 4 8 5 4 2 3 7 11 5 5 8 9 9 5 8 7 8 7 8 13 15 21 16 18 17 18 18 5 6 6
2 3 1 2 4 4 3 2 2 3 3 2 3 10 5 3 6 10 13 9 6 7 8 3 7 10 13 17 17 18 18 18 13 16 13 22 20 21 20 17 18 6 5 5 6
5 3 0 1 3 6 6 6 8 5 6 6 8 6 9 11 11 13 13 8 11 5 2 2 13 11 13 15 19 23 22 21 17 20 15 20 22 20 17 14 11 6 5 5 6
2 1 3 7 4 4 5 7 7 4 8 10 7 6 8 11 7 7 9 9 8 6 5 3 2 3 16 12 13 15 14 14 12 10 5 6 8 9 9 8 7 4 4 4 6
Wind_Direction
1 360 356 351 347 342 336 332 325 330 331 326 323 325 321 316 306 227 269 28 95 116 291 293 304 343 279 247 108 321 266 270 274 292 326 345 336 323 320 310 316 310 307 303 309
5 1 358 354 349 344 339 332 326 328 333 330 341 343 330 323 283 67 346 152 112 32 267 34 356 335 296 251 217 210 267 265 334 332 318 324 316 313 311 305 303 300 297 309 310
6 2 359 355 352 348 347 343 333 339 331 335 348 340 327 306 262 67 45 91 93 254 351 75 43 333 280 312 302 270 259 293 304 314 317 308 308 313 308 294 291 297 301 308 308
4 360 357 356 356 355 354 352 345 336 340 346 337 320 326 252 41 103 61 48 5 360 91 130 74 253 12 282 281 288 281 292 299 303 318 302 298 291 287 287 291 286 283 280 281
2 359 355 355 355 355 354 353 353 346 344 338 323 313 316 172 74 134 202 155 251 259 294 265 258 286 232 292 283 258 269 289 304 294 285 274 266 279 285 296 292 290 285 300 308
0 357 353 352 351 350 345 339 339 344 338 330 281 295 261 141 125 90 341 296 329 306 166 270 315 324 305 283 270 329 322 296 276 261 255 274 313 318 287 282 303 305 285 297 294
358 354 352 348 347 346 344 340 340 339 342 344 34 246 47 87 41 2 158 44 359 343 322 27 319 282 32 274 313 283 282 275 257 351 333 332 301 292 304 309 294 289 282 264 265
356 352 349 346 346 344 342 342 351 343 344 332 338 287 66 55 343 43 272 110 41 47 9 329 312 282 308 286 250 227 237 277 342 336 324 316 294 307 310 300 298 297 296 288 274
355 350 346 347 344 340 335 324 318 310 300 290 284 268 97 159 238 16 323 324 76 167 137 351 249 300 182 251 291 177 305 327 320 321 305 329 309 310 312 303 325 345 343 341 332
356 348 346 346 341 336 320 288 287 295 237 248 248 231 173 63 58 338 60 297 250 227 237 229 228 249 234 252 308 317 317 310 305 296 335 305 295 312 298 6 351 349 25 15 8
352 347 348 348 336 343 318 198 233 186 38 11 31 99 90 98 176 198 49 212 220 229 267 185 271 245 74 61 285 308 293 287 282 318 304 304 304 295 291 56 27 9 3 4 353
349 345 349 348 320 348 10 54 57 215 314 128 110 108 64 335 227 163 248 243 193 270 142 229 231 51 22 291 276 275 281 290 296 324 326 306 293 281 271 119 92 64 17 360 355
348 346 344 341 321 324 66 60 350 333 261 152 78 299 82 285 302 130 203 31 264 284 264 271 286 301 278 293 291 292 294 303 320 318 298 292 301 325 310 165 124 76 41 358 4
347 348 339 331 301 320 58 10 343 323 275 143 194 127 190 271 242 31 225 319 257 280 335 277 96 2 295 285 287 297 313 332 317 314 301 315 296 278 277 284 97 81 56 9 7
350 349 334 346 313 46 347 334 311 250 50 140 129 79 225 254 343 170 99 216 269 299 330 271 238 282 298 295 331 285 324 310 293 281 285 278 279 289 291 318 68 60 21 33 25
346 346 330 292 112 25 335 318 240 179 29 156 100 242 272 200 218 117 224 206 280 297 259 261 276 284 272 315 303 287 294 282 279 276 262 265 270 273 303 305 35 29 345 39 24
347 341 349 325 29 340 310 229 25 69 193 117 319 261 309 276 277 198 272 242 263 296 333 332 254 185 109 289 304 202 308 320 331 8 241 324 322 292 319 65 29 288 352 29 18
303 310 62 33 348 320 260 287 53 281 39 354 283 291 273 10 212 324 275 271 228 305 308 307 314 157 141 241 319 302 253 184 287 308 302 320 271 289 295 178 215 49 29 14 5
303 209 178 92 325 294 255 52 62 20 341 342 304 257 274 140 262 343 272 273 78 137 207 335 245 75 210 262 6 321 297 247 288 271 279 236 258 298 9 27 13 17 12 0 1
300 279 98 11 312 258 73 228 48 47 342 277 291 25 321 9 289 39 299 27 106 84 89 341 305 275 282 35 249 215 270 334 305 281 286 297 319 288 13 344 358 3 349 354 353
261 294 104 321 272 250 129 50 351 74 346 275 294 296 275 278 109 329 273 299 47 136 113 16 196 281 338 219 244 192 241 225 294 249 268 299 253 334 330 348 357 314 18 3 341
277 281 71 278 2 279 246 48 65 279 167 273 283 264 265 291 230 235 247 219 83 351 245 183 244 259 259 270 324 16 288 126 173 280 242 269 278 272 280 310 299 295 12 356 352
214 259 150 285 186 230 114 275 235 214 228 197 255 227 314 293 285 232 279 84 38 162 275 79 237 302 302 351 30 297 276 209 208 288 260 261 267 312 294 300 340 328 317 4 2
117 262 177 344 329 337 91 269 264 191 262 253 261 257 279 273 257 262 254 278 188 229 241 148 231 208 241 248 293 282 238 243 234 257 276 262 285 297 297 319 323 316 354 4 4
143 228 352 213 217 132 132 156 251 256 212 228 262 235 200 244 257 250 259 278 265 257 226 224 242 236 253 269 275 277 267 258 242 246 248 275 279 284 286 296 299 306 352 356 0
150 170 8 138 125 131 173 209 206 214 165 224 230 255 224 229 236 274 284 274 251 239 218 227 267 274 275 284 280 276 271 265 253 254 249 260 269 276 285 286 297 275 327 0 345
137 66 144 160 165 164 202 202 207 203 222 242 252 260 250 265 298 319 304 295 275 257 182 233 242 269 272 273 290 287 261 251 257 255 238 275 284 304 292 288 299 350 322 359 345